Regional Weather Roundup
Issued by NWS

Home | Current Version | Previous Version | Graphics & Text | Print | Product List | Glossary On
Versions: 1 2 3 4 5 6 7 8 9 10 11 12 13 14 15 16 17 18 19 20 21 22 23 24 25 26 27 28 29 30 31 32 33 34 35 36 37 38 39 40 41 42 43 44 45 46 47 48 49 50
218
ASUS45 KCYS 250210
RWRWY

WYOMING REGIONAL WEATHER ROUNDUP
NATIONAL WEATHER SERVICE CHEYENNE WY
800 PM MDT SUN SEP 24 2017

NOTE:  "FAIR" INDICATES FEW OR NO CLOUDS BELOW 12,000 FEET
WITH NO SIGNIFICANT WEATHER AND/OR OBSTRUCTIONS TO VISIBILITY.

WYZ001-250300-
YELLOWSTONE NATIONAL PARK

CITY           SKY/WX    TMP DP  RH WIND       PRES   REMARKS
LK YELLOWSTONE NOT AVBL
W YELLOWSTONE  NOT AVBL

$$
WYZ002>013-054>058-071-098>099-250300-
NORTHERN WYOMING

CITY           SKY/WX    TMP DP  RH WIND       PRES   REMARKS
JACKSON        LGT RAIN  37  35  92 SW8       30.06R WCI  31
CODY           CLOUDY    42  35  76 N3        30.11S
GREYBULL       CLOUDY    46  42  86 S6        30.09R
WORLAND        CLOUDY    44  43  96 CALM      30.09F
SHERIDAN       CLOUDY    45  40  82 NE3       30.12S
BUFFALO        CLOUDY    42  35  76 N3        30.12S
GILLETTE       CLOUDY    42  39  89 N8        30.11R
HULETT         CLOUDY    41  37  87 N3        30.13R
NEWCASTLE      DRIZZLE   43  43 100 S8        30.10R

$$
WYZ014>020-022>026-101>103-250300-
CENTRAL WYOMING

CITY           SKY/WX    TMP DP  RH WIND       PRES   REMARKS
BIG PINEY      CLOUDY    33  33 100 NW7       30.06S WCI  27
PINEDALE       CLOUDY    34  34 100 NW9       30.07R WCI  26
DUBOIS         CLOUDY    32  32 100 E8        30.08S WCI  25
LANDER         CLOUDY    38  36  92 CALM      30.10R
RIVERTON       CLOUDY    39  38  96 SW7       30.12R WCI  34
CASPER         LGT RAIN  39  37  92 NE13      30.09S WCI  31
DOUGLAS        LGT RAIN  42  39  89 N9        30.09S

$$
WYZ021-027>030-104>119-250300-
SOUTHERN WYOMING

CITY           SKY/WX    TMP DP  RH WIND       PRES   REMARKS
EVANSTON       SNOW      33  33 100 SW10      30.08R VSB 1/4 WCI  25
FORT BRIDGER   CLOUDY    35  35 100 W12       30.09R WCI  27
ROCK SPRINGS   LGT RAIN  35  33  92 E14       30.06R WCI  26
DIXON          MOCLDY    41  37  88 E6        30.09R
RAWLINS        CLOUDY    33  31  92 N15       30.09R FOG     WCI  23
SARATOGA       LGT RAIN  41  41 100 W12G21    30.07R
LARAMIE        HVY RAIN  36  34  92 W6        30.08R FOG     WCI  31
CHEYENNE       LGT RAIN  42  41  96 NE7       30.04S VSB 1
TORRINGTON     LGT RAIN  47  45  93 NE14      30.04R
PINE BLUFFS    CLOUDY    45  45 100 NE7       30.04S FOG

$$




USA.gov is the U.S. government's official web portal to all federal, state and local government web resources and services.